Home   Weather   Augusta   Past weeks

Flag for USA Past Weather in Augusta, Maine, USA — Yesterday and Last 2 Weeks

Now
33 °F

Sunny.


Feels Like: 25 °F
Forecast: 11 / 32 °F
Wind: 9 mph from Southwest

Location: Augusta State Airport

Current Time: Jan 16, 2017 at 5:16:08 pm

Latest Report: Jan 16, 2017 at 3:53 pm


Visibility: 10 mi

Pressure: 30.17 "Hg

Humidity: 40%

Dew Point: 11 °F

Location of AugustaLocation

Past Weather in Augusta — Graph

°F

Augusta Temperature Yesterday

Maximum temperature yesterday: 27 °F (at 12:53 pm)
Minimum temperature yesterday: 15 °F (at 2:53 am)
Average temperature yesterday: 19 °F

High & Low Weather Summary for the Past Weeks

 TemperatureHumidityPressure
High51 °F (Jan 11, 1:53 pm)97% (Jan 12, 11:02 pm)30.70 "Hg (Jan 12, 11:02 pm)
Low0 °F (Jan 9, 7:53 am)28% (Jan 13, 12:53 pm)29.28 "Hg (Jan 4, 7:34 am)
Average25 °F67%30.14 "Hg
* Reported Jan 1 3:53 pm — Jan 16 3:53 pm, Augusta, Weather by CustomWeather, © 2017

Note: Actual official high and low records may vary slightly from our data, if they occured in-between our weather recording intervals... More about our weather records

Advertising

Augusta Weather History for the Previous 24 Hours

Scroll right to see more
 ConditionsComfort  
Time TempWeatherWind HumidityBarometerVisibility
3:53 pm
Mon, Jan 16
33 °FSunny.9 mph40%30.17 "Hg10 mi
2:53 pm34 °FSunny.8 mph37%30.17 "Hg10 mi
1:53 pm33 °FScattered clouds.9 mph38%30.20 "Hg10 mi
12:53 pm31 °FPartly sunny.7 mph41%30.23 "Hg10 mi
11:53 am27 °FSunny.8 mph42%30.29 "Hg10 mi
10:53 am24 °FSunny.7 mph46%30.32 "Hg10 mi
9:53 am21 °FPartly sunny.5 mph45%30.37 "Hg10 mi
8:53 am16 °FScattered clouds.3 mph56%30.38 "Hg10 mi
7:53 am13 °FSunny.3 mph61%30.40 "Hg10 mi
6:53 am10 °FClear.5 mph69%30.41 "Hg10 mi
5:53 am10 °FClear.No wind69%30.41 "Hg10 mi
4:53 am13 °FClear.No wind59%30.42 "Hg10 mi
3:53 am12 °FClear.3 mph64%30.42 "Hg10 mi
2:53 am15 °FPassing clouds.No wind53%30.42 "Hg10 mi
1:53 am15 °FPassing clouds.No wind56%30.43 "Hg10 mi
12:53 am15 °FPassing clouds.3 mph53%30.41 "Hg10 mi
11:53 pm
Sun, Jan 15
16 °FClear.No wind51%30.41 "Hg10 mi
10:53 pm16 °FPassing clouds.3 mph51%30.41 "Hg10 mi
9:53 pm16 °FClear.7 mph53%30.40 "Hg10 mi
8:53 pm16 °FClear.5 mph53%30.41 "Hg10 mi
7:53 pm17 °FClear.No wind49%30.40 "Hg10 mi
6:53 pm18 °FClear.7 mph47%30.39 "Hg10 mi
5:53 pm19 °FClear.7 mph45%30.37 "Hg10 mi
Weather by CustomWeather, © 2017

See weather overviewHow to use our weather pages